• In Österreich
  • Länderverzeichnis
  • Für 7 Tage
  • Wassertemperatur
  • Satellitenkarten
  • Wetterkarte
  • News
  • Widgets
  • user-avatar
    Anmelden

    Stündliche Wetter Saafrana

    Heute, 21 September, Freitag

    Zeit Temperatur Niederschläge Wind Luftdruck Luftfeuchtigkeit
    00:00 +27°C° 0 mm 3 m/S 744 mmHg 53%
    01:00 +27°C° 0 mm 3 m/S 744 mmHg 58%
    02:00 +26°C° 0 mm 3 m/S 744 mmHg 63%
    03:00 +26°C° 0 mm 3 m/S 744 mmHg 65%
    04:00 +25°C° 0 mm 3 m/S 744 mmHg 68%
    05:00 +25°C° 0 mm 3 m/S 744 mmHg 71%
    06:00 +26°C° 0 mm 3 m/S 744 mmHg 66%
    07:00 +27°C° 0 mm 3 m/S 744 mmHg 61%
    08:00 +28°C° 0 mm 3 m/S 745 mmHg 56%
    09:00 +29°C° 0 mm 3 m/S 745 mmHg 49%
    10:00 +32°C° 0 mm 4 m/S 745 mmHg 42%
    11:00 +33°C° 0 mm 4 m/S 745 mmHg 35%
    12:00 +34°C° 0 mm 4 m/S 744 mmHg 32%
    13:00 +35°C° 0 mm 4 m/S 744 mmHg 29%
    14:00 +36°C° 0 mm 4 m/S 743 mmHg 26%
    15:00 +35°C° 0 mm 5 m/S 743 mmHg 26%
    16:00 +35°C° 0 mm 5 m/S 743 mmHg 26%
    17:00 +35°C° 0 mm 5 m/S 743 mmHg 26%
    18:00 +34°C° 0 mm 4 m/S 743 mmHg 29%
    19:00 +32°C° 0 mm 4 m/S 744 mmHg 32%
    20:00 +30°C° 0 mm 3 m/S 744 mmHg 35%
    21:00 +29°C° 0 mm 3 m/S 744 mmHg 40%
    22:00 +28°C° 0 mm 3 m/S 744 mmHg 45%
    23:00 +28°C° 0 mm 3 m/S 745 mmHg 51%

    Morgen, 22 September, Samstag

    Zeit Temperatur Niederschläge Wind Luftdruck Luftfeuchtigkeit
    00:00 +27°C° 0 mm 3 m/S 745 mmHg 54%
    01:00 +26°C° 0 mm 3 m/S 745 mmHg 58%
    02:00 +26°C° 0 mm 3 m/S 744 mmHg 62%
    03:00 +25°C° 0 mm 3 m/S 745 mmHg 65%
    04:00 +25°C° 0 mm 3 m/S 745 mmHg 67%
    05:00 +25°C° 0 mm 3 m/S 745 mmHg 69%
    06:00 +26°C° 0 mm 3 m/S 745 mmHg 65%
    07:00 +27°C° 0 mm 4 m/S 745 mmHg 61%
    08:00 +28°C° 0 mm 4 m/S 745 mmHg 57%
    09:00 +29°C° 0 mm 4 m/S 745 mmHg 50%
    10:00 +32°C° 0 mm 4 m/S 745 mmHg 42%
    11:00 +33°C° 0 mm 4 m/S 745 mmHg 35%
    12:00 +34°C° 0 mm 4 m/S 744 mmHg 32%
    13:00 +35°C° 0 mm 4 m/S 744 mmHg 29%
    14:00 +36°C° 0 mm 4 m/S 743 mmHg 26%
    15:00 +36°C° 0 mm 4 m/S 743 mmHg 26%
    16:00 +35°C° 0 mm 4 m/S 743 mmHg 27%
    17:00 +35°C° 0 mm 4 m/S 743 mmHg 27%
    18:00 +34°C° 0 mm 4 m/S 744 mmHg 31%
    19:00 +33°C° 0 mm 4 m/S 744 mmHg 36%
    20:00 +30°C° 0 mm 4 m/S 745 mmHg 40%
    21:00 +30°C° 0 mm 4 m/S 745 mmHg 46%
    22:00 +29°C° 0 mm 4 m/S 745 mmHg 53%
    23:00 +28°C° 0 mm 4 m/S 745 mmHg 59%

    übermorgen, 23 September, Sonntag

    Zeit Temperatur Niederschläge Wind Luftdruck Luftfeuchtigkeit
    00:00 +27°C° 0 mm 4 m/S 745 mmHg 63%
    01:00 +27°C° 0 mm 3 m/S 745 mmHg 67%
    02:00 +26°C° 0 mm 3 m/S 745 mmHg 71%
    03:00 +26°C° 0 mm 3 m/S 745 mmHg 73%
    04:00 +25°C° 0 mm 3 m/S 745 mmHg 75%
    05:00 +25°C° 0 mm 3 m/S 745 mmHg 78%
    06:00 +26°C° 0 mm 4 m/S 745 mmHg 71%
    07:00 +27°C° 0 mm 4 m/S 746 mmHg 64%
    08:00 +28°C° 0 mm 4 m/S 746 mmHg 58%
    09:00 +29°C° 0 mm 4 m/S 746 mmHg 49%
    10:00 +32°C° 0 mm 4 m/S 745 mmHg 41%
    11:00 +34°C° 0 mm 4 m/S 745 mmHg 32%
    12:00 +35°C° 0 mm 5 m/S 745 mmHg 29%
    13:00 +36°C° 0 mm 5 m/S 744 mmHg 26%
    14:00 +37°C° 0 mm 5 m/S 744 mmHg 24%
    15:00 +36°C° 0 mm 5 m/S 744 mmHg 25%
    16:00 +36°C° 0 mm 5 m/S 744 mmHg 26%
    17:00 +35°C° 0 mm 5 m/S 744 mmHg 27%
    18:00 +34°C° 0 mm 5 m/S 744 mmHg 32%
    19:00 +33°C° 0 mm 4 m/S 745 mmHg 37%
    20:00 +30°C° 0 mm 4 m/S 745 mmHg 42%
    21:00 +29°C° 0 mm 4 m/S 745 mmHg 48%
    22:00 +29°C° 0 mm 4 m/S 745 mmHg 54%
    23:00 +28°C° 0 mm 4 m/S 745 mmHg 60%

    24 September, Montag

    Zeit Temperatur Niederschläge Wind Luftdruck Luftfeuchtigkeit
    00:00 +27°C° 0 mm 4 m/S 745 mmHg 63%
    01:00 +26°C° 0 mm 4 m/S 745 mmHg 66%
    02:00 +26°C° 0 mm 3 m/S 745 mmHg 69%
    03:00 +25°C° 0 mm 3 m/S 745 mmHg 70%
    04:00 +25°C° 0 mm 3 m/S 744 mmHg 71%
    05:00 +23°C° 0 mm 4 m/S 744 mmHg 72%
    06:00 +26°C° 0 mm 4 m/S 745 mmHg 65%
    07:00 +27°C° 0 mm 4 m/S 745 mmHg 58%
    08:00 +28°C° 0 mm 4 m/S 745 mmHg 51%
    09:00 +30°C° 0 mm 4 m/S 745 mmHg 44%
    10:00 +33°C° 0 mm 4 m/S 744 mmHg 36%
    11:00 +35°C° 0 mm 4 m/S 744 mmHg 29%
    12:00 +36°C° 0 mm 4 m/S 743 mmHg 26%
    13:00 +37°C° 0 mm 4 m/S 743 mmHg 24%
    14:00 +38°C° 0 mm 4 m/S 742 mmHg 21%
    15:00 +37°C° 0 mm 4 m/S 742 mmHg 22%
    16:00 +37°C° 0 mm 4 m/S 742 mmHg 23%
    17:00 +36°C° 0 mm 4 m/S 742 mmHg 23%
    18:00 +35°C° 0 mm 4 m/S 743 mmHg 27%
    19:00 +33°C° 0 mm 4 m/S 743 mmHg 31%
    20:00 +31°C° 0 mm 3 m/S 743 mmHg 35%
    21:00 +30°C° 0 mm 3 m/S 743 mmHg 40%
    22:00 +29°C° 0 mm 3 m/S 743 mmHg 45%
    23:00 +28°C° 0 mm 3 m/S 743 mmHg 50%

    25 September, Dienstag

    Zeit Temperatur Niederschläge Wind Luftdruck Luftfeuchtigkeit
    00:00 +28°C° 0 mm 3 m/S 743 mmHg 53%
    01:00 +27°C° 0 mm 3 m/S 743 mmHg 56%
    02:00 +26°C° 0 mm 3 m/S 743 mmHg 59%
    03:00 +26°C° 0 mm 3 m/S 743 mmHg 59%
    04:00 +26°C° 0 mm 3 m/S 743 mmHg 59%
    05:00 +25°C° 0 mm 3 m/S 743 mmHg 58%
    06:00 +27°C° 0 mm 3 m/S 743 mmHg 52%
    07:00 +28°C° 0 mm 3 m/S 743 mmHg 46%
    08:00 +30°C° 0 mm 3 m/S 743 mmHg 39%
    09:00 +31°C° 0 mm 3 m/S 743 mmHg 33%
    10:00 +34°C° 0 mm 3 m/S 743 mmHg 27%
    11:00 +36°C° 0 mm 3 m/S 743 mmHg 21%
    12:00 +37°C° 0 mm 3 m/S 742 mmHg 19%
    13:00 +38°C° 0 mm 4 m/S 742 mmHg 17%
    14:00 +38°C° 0 mm 4 m/S 741 mmHg 15%
    15:00 +38°C° 0 mm 4 m/S 741 mmHg 17%
    16:00 +37°C° 0 mm 4 m/S 741 mmHg 18%
    17:00 +37°C° 0 mm 4 m/S 741 mmHg 20%
    18:00 +35°C° 0 mm 4 m/S 742 mmHg 24%
    19:00 +34°C° 0 mm 3 m/S 742 mmHg 28%
    20:00 +31°C° 0 mm 3 m/S 743 mmHg 32%
    21:00 +30°C° 0 mm 3 m/S 743 mmHg 35%
    22:00 +30°C° 0 mm 3 m/S 743 mmHg 39%
    23:00 +29°C° 0 mm 2 m/S 743 mmHg 43%

    26 September, Mittwoch

    Zeit Temperatur Niederschläge Wind Luftdruck Luftfeuchtigkeit
    00:00 +28°C° 0 mm 2 m/S 742 mmHg 46%
    01:00 +28°C° 0 mm 2 m/S 742 mmHg 49%
    02:00 +27°C° 0 mm 2 m/S 742 mmHg 52%
    03:00 +27°C° 0 mm 2 m/S 742 mmHg 53%
    04:00 +26°C° 0 mm 2 m/S 742 mmHg 55%
    05:00 +26°C° 0 mm 2 m/S 742 mmHg 56%
    06:00 +27°C° 0 mm 2 m/S 743 mmHg 51%
    07:00 +29°C° 0 mm 2 m/S 743 mmHg 45%
    08:00 +30°C° 0 mm 2 m/S 743 mmHg 40%
    09:00 +33°C° 0 mm 3 m/S 743 mmHg 34%
    10:00 +34°C° 0 mm 3 m/S 743 mmHg 28%
    11:00 +36°C° 0 mm 3 m/S 743 mmHg 22%
    12:00 +37°C° 0 mm 3 m/S 743 mmHg 20%
    13:00 +38°C° 0 mm 3 m/S 742 mmHg 18%
    14:00 +38°C° 0 mm 3 m/S 742 mmHg 17%
    15:00 +38°C° 0 mm 3 m/S 742 mmHg 18%
    16:00 +37°C° 0 mm 3 m/S 742 mmHg 19%
    17:00 +37°C° 0 mm 3 m/S 742 mmHg 21%
    18:00 +35°C° 0 mm 3 m/S 742 mmHg 24%
    19:00 +34°C° 0 mm 3 m/S 742 mmHg 28%
    20:00 +31°C° 0 mm 2 m/S 743 mmHg 31%
    21:00 +31°C° 0 mm 2 m/S 743 mmHg 34%
    22:00 +30°C° 0 mm 2 m/S 743 mmHg 37%
    23:00 +29°C° 0 mm 2 m/S 743 mmHg 40%
    Mehr zeigen